Theta_e
317 318 316 314 327 330 331 331 330 330 328 328 320 316 316 316 315 314 313 312 309 307 306 306 305 305 304 303 303 302 303 303 305 306 305 303 303 302 301 301 300 300 300
316 317 317 318 315 322 329 328 329 330 328 327 323 318 317 316 314 313 311 309 307 306 305 305 304 303 303 303 302 301 302 302 305 305 303 301 299 300 299 299 299 298 298
318 318 318 317 316 317 323 327 327 329 329 327 324 318 316 314 312 312 311 308 306 305 304 304 304 303 302 301 301 300 300 301 304 304 304 302 303 298 297 298 297 297 297
319 319 320 319 318 320 323 324 324 326 326 325 321 321 318 314 311 311 309 307 305 304 303 303 302 302 301 300 299 299 299 300 302 303 303 303 302 301 297 295 295 296 295
316 318 318 319 319 320 321 321 322 321 322 317 315 314 313 309 307 305 304 303 303 303 302 302 301 301 300 299 298 298 298 299 300 302 303 303 302 301 298 296 293 293 293
317 317 317 317 317 318 318 318 318 317 315 312 311 310 309 308 307 306 305 303 302 302 302 301 300 299 299 298 297 297 296 296 297 299 301 302 302 302 301 297 294 293 291
316 316 317 317 317 316 316 316 314 313 312 312 311 310 310 310 310 309 307 307 305 306 303 300 299 298 297 296 296 296 296 295 294 295 295 299 301 301 302 301 294 292 290
310 315 316 316 316 316 315 315 311 310 310 310 310 312 312 310 311 308 308 309 307 302 300 299 298 298 296 295 295 294 294 293 293 293 293 293 294 295 298 300 299 293 291
309 309 312 312 315 316 316 315 316 312 310 308 310 310 311 312 312 310 309 307 305 302 302 299 297 296 295 295 294 294 292 292 291 291 292 293 293 295 298 299 299 299 294
307 307 307 308 310 311 314 316 315 311 312 311 310 311 312 313 312 310 309 308 307 304 304 300 298 297 295 294 293 292 292 291 291 290 290 291 293 296 297 298 298 297 296
306 307 307 307 308 310 311 313 314 313 313 313 314 313 313 312 311 311 310 308 305 304 303 300 299 298 295 293 291 291 291 291 291 291 290 290 290 292 295 296 297 296 295
306 306 307 307 308 308 309 312 313 314 313 313 311 311 311 311 311 311 310 309 307 305 302 299 299 300 294 292 291 291 291 291 291 291 290 290 291 291 291 292 294 294 293
306 306 306 307 308 307 308 308 310 312 311 311 311 310 310 310 310 311 310 308 307 306 304 302 298 298 295 291 290 290 290 290 290 290 290 289 290 291 292 293 293 293 293
306 306 307 308 306 305 306 306 307 308 311 311 312 310 310 310 310 310 309 309 308 305 304 300 298 297 294 291 290 290 290 290 289 290 290 289 289 290 290 290 291 290 290
307 308 306 305 304 304 305 307 306 306 306 307 308 310 311 311 310 310 309 308 307 305 301 299 300 296 291 290 290 290 290 290 289 289 290 290 289 289 290 290 289 289 290
307 305 303 303 303 306 308 308 307 307 307 307 307 307 308 309 309 309 308 308 306 303 300 300 300 299 296 292 290 290 290 289 289 289 290 289 289 289 289 289 289 289 289
306 304 303 304 305 305 306 308 308 307 307 307 308 308 307 308 308 308 307 306 305 302 301 302 301 300 298 297 290 290 289 289 289 289 289 289 288 289 289 288 288 288 289
306 304 304 304 304 303 303 304 308 307 306 307 307 307 306 306 306 307 306 305 303 302 301 299 299 299 297 292 289 289 289 289 289 289 289 288 287 287 287 287 287 287 287
306 305 305 304 303 303 303 303 307 307 306 307 307 305 305 305 305 306 305 304 302 301 300 297 298 297 295 291 289 289 289 288 288 288 288 286 285 285 286 286 286 286 286
305 304 305 303 305 307 308 306 307 305 306 307 305 305 305 305 305 305 305 304 302 301 299 297 297 297 293 290 289 289 289 288 288 288 287 286 285 285 284 285 285 285 285
305 305 304 304 305 305 306 307 305 305 306 306 305 305 305 305 304 304 303 302 300 299 298 297 296 295 290 290 289 289 289 288 288 288 287 286 285 285 284 284 284 284 284
303 304 303 304 305 305 305 306 304 304 305 306 305 304 304 303 304 303 302 301 299 298 298 296 295 292 290 289 289 291 288 288 287 287 287 286 285 284 283 283 283 283 283
303 303 303 304 304 304 305 305 304 303 304 305 303 303 303 303 302 302 301 300 298 298 298 296 295 293 292 291 290 290 289 288 287 287 286 285 284 283 283 283 282 283 283
304 303 303 304 304 304 304 304 301 302 302 303 303 301 301 301 300 300 300 299 298 297 297 296 295 293 292 290 290 290 289 289 287 286 286 285 283 282 282 282 282 282 282
302 302 303 304 304 304 304 302 301 302 302 301 302 301 300 300 299 299 299 299 299 298 298 297 295 294 293 293 291 290 289 290 287 286 285 284 282 282 283 283 283 283 283
302 302 303 304 303 304 305 304 302 301 301 301 301 301 301 300 299 299 299 297 297 296 296 295 295 294 293 292 291 290 290 290 288 286 283 283 282 282 283 284 284 284 283
Wind_Speed
12 14 14 17 25 33 36 36 33 37 38 38 35 33 32 30 28 26 22 20 18 18 17 16 16 15 15 15 16 18 18 22 22 23 20 16 13 10 8 5 3 2 2
13 13 12 14 19 25 32 35 36 37 40 40 39 38 33 31 28 25 22 19 17 17 18 16 15 16 17 17 17 18 22 23 27 22 18 12 9 11 11 8 6 2 2
17 17 13 9 11 17 24 30 34 37 40 42 42 37 32 29 28 26 23 21 19 19 19 18 18 17 16 16 18 19 20 24 29 24 12 10 9 15 10 11 9 5 1
14 14 14 13 10 13 18 21 26 32 38 41 41 38 35 32 29 26 23 21 20 18 18 17 16 17 17 17 18 18 19 19 25 27 23 13 11 10 10 11 11 8 3
16 18 15 12 9 9 14 15 17 25 33 34 32 32 31 27 17 14 16 17 16 16 16 16 16 16 17 16 17 18 18 20 21 26 26 18 14 14 11 14 13 11 7
19 18 17 14 8 3 5 10 17 22 25 24 16 11 7 12 13 13 14 16 14 13 14 16 15 15 14 16 16 17 18 19 22 27 27 26 22 20 16 10 17 12 9
14 13 12 11 8 2 3 7 2 5 4 6 9 10 8 22 13 16 21 18 12 11 16 16 14 16 14 15 15 14 15 17 18 22 23 28 24 19 20 17 20 14 11
18 14 11 9 8 5 3 9 13 7 4 5 4 12 11 16 15 16 16 15 12 14 15 15 17 15 14 14 13 13 14 15 17 18 19 20 19 19 21 21 21 16 9
15 16 15 14 12 11 11 16 13 9 5 7 12 17 20 23 22 19 20 16 14 17 15 16 16 15 14 14 13 13 13 12 12 12 13 14 17 19 20 18 18 13 12
18 22 21 24 22 19 17 23 22 16 12 12 16 22 23 18 18 18 19 19 16 19 17 17 16 14 14 13 13 14 14 12 10 10 9 12 17 22 21 18 17 14 9
28 28 30 28 27 24 25 29 30 26 22 21 25 23 23 23 22 20 24 23 22 22 20 17 17 14 14 15 15 15 14 13 12 10 9 13 17 20 19 19 20 16 12
38 32 34 30 27 21 25 33 36 29 26 22 20 23 21 21 22 24 25 26 23 23 19 17 16 14 18 17 17 16 14 13 13 12 12 16 16 16 17 19 20 17 14
36 38 33 30 24 18 16 15 21 25 27 25 24 24 25 22 24 27 27 29 25 24 23 21 18 15 19 19 17 16 14 13 13 15 16 16 14 14 17 18 19 17 15
35 30 25 17 13 15 15 14 14 17 23 27 29 28 31 29 27 30 31 30 29 29 27 23 20 17 18 18 18 17 15 16 18 19 16 14 13 12 14 16 16 16 16
22 15 14 14 16 18 19 21 21 20 19 20 26 30 30 32 32 32 35 35 33 31 29 26 23 21 20 20 17 17 18 19 21 17 15 14 13 13 14 14 16 16 17
10 10 14 16 18 18 19 20 19 17 17 19 24 25 30 33 31 32 33 32 33 33 31 29 26 25 26 24 19 18 19 19 18 15 15 15 15 15 15 15 16 15 15
10 11 14 15 16 19 22 22 21 19 20 18 18 23 25 27 27 29 31 34 35 34 34 28 24 24 22 22 21 20 18 17 15 14 13 15 16 16 16 15 16 16 16
10 12 14 17 20 24 25 24 22 20 21 18 16 16 18 19 24 29 31 31 34 35 36 29 22 20 21 23 21 20 19 17 15 14 14 14 15 16 16 16 16 16 16
13 14 17 19 25 28 26 25 20 18 18 16 11 8 8 16 20 27 29 31 31 33 32 27 23 22 24 22 21 21 20 19 17 15 16 16 16 16 16 16 16 16 15
11 14 16 21 23 22 22 18 14 14 11 9 5 4 6 11 15 19 23 27 29 29 27 27 21 20 21 22 21 21 21 21 18 17 18 17 17 16 16 16 15 15 14
16 16 15 19 16 22 20 13 10 9 8 6 4 5 7 8 10 13 16 21 24 27 25 25 21 21 22 22 23 22 22 20 18 18 18 17 16 15 15 16 16 15 14
13 13 15 17 17 21 21 12 8 7 7 6 4 6 8 8 9 9 11 14 20 23 24 24 22 23 25 27 27 24 23 19 18 18 16 14 15 15 15 17 17 18 17
17 15 15 17 17 18 17 13 7 5 4 5 6 6 6 6 8 9 11 14 18 23 23 23 23 24 25 25 24 26 27 22 20 19 14 14 15 16 17 17 19 20 19
18 13 13 15 15 13 14 14 4 3 3 5 8 7 6 7 8 10 11 14 18 22 20 21 23 24 24 25 25 26 24 23 22 20 19 19 19 18 17 17 20 20 19
14 11 10 13 14 12 9 7 7 9 8 5 8 8 8 8 9 10 10 12 14 16 16 17 19 21 23 24 25 26 26 26 22 21 23 23 22 21 21 21 21 20 21
14 12 10 11 13 12 13 9 5 5 9 6 10 12 11 12 12 12 12 12 11 12 12 14 13 13 15 17 22 24 24 24 21 23 24 25 24 24 23 23 23 23 23
Wind_Direction
330 322 299 279 267 256 252 251 239 227 225 228 221 218 218 218 219 218 221 223 222 222 219 218 214 207 204 205 197 189 188 179 182 171 157 154 160 165 160 154 155 128 45
343 347 335 308 279 271 260 251 246 234 227 229 227 223 218 219 220 222 222 223 218 216 217 212 214 210 203 199 197 198 185 186 180 178 158 144 150 167 167 172 178 185 3
1 360 354 327 287 274 265 256 249 242 233 233 229 225 223 222 219 220 223 215 214 213 212 207 201 205 201 201 197 195 200 191 188 190 174 161 178 162 169 184 188 197 278
23 20 13 4 332 292 271 263 256 245 234 227 225 225 224 220 222 224 221 213 210 210 210 206 205 198 199 200 201 200 203 207 199 198 206 203 187 174 166 182 195 195 190
36 34 30 24 3 315 290 278 252 238 234 226 220 215 214 214 221 216 227 220 203 211 212 210 213 206 197 198 204 202 205 205 216 213 211 211 199 189 162 177 179 187 176
26 25 24 23 21 347 258 256 234 227 231 224 221 229 244 250 251 244 224 233 219 209 222 222 219 216 200 201 202 203 209 215 220 225 226 227 210 197 199 168 174 176 160
18 16 19 21 20 331 256 231 217 209 182 203 245 228 238 244 222 239 242 238 232 245 240 230 219 218 203 204 203 205 215 220 223 227 228 228 230 232 227 211 171 169 160
18 2 2 357 339 316 269 173 142 119 14 303 246 210 213 207 218 208 221 228 235 231 222 224 220 215 209 205 204 207 214 217 221 225 223 223 221 214 220 216 185 154 148
13 1 342 334 315 285 250 192 210 266 245 233 197 207 202 218 214 212 219 218 223 219 219 221 221 217 209 205 206 203 204 212 217 222 219 214 209 203 185 204 193 188 156
316 313 307 301 286 271 260 228 237 245 257 234 233 233 239 232 233 231 229 230 223 226 223 216 217 217 217 211 207 200 195 193 206 202 208 206 206 196 166 180 186 184 185
298 294 295 297 287 269 263 254 251 250 255 257 248 248 239 231 230 229 239 233 227 225 224 215 214 213 221 210 206 199 191 179 189 191 192 206 200 188 163 173 184 188 187
307 303 291 291 290 276 275 261 262 259 259 250 259 250 246 239 223 232 234 236 235 230 223 217 221 218 225 212 204 199 189 187 184 184 189 205 193 164 156 172 184 189 188
303 303 300 292 297 293 296 285 272 270 269 263 239 255 254 245 235 229 232 231 232 231 228 219 220 218 226 213 202 201 185 193 188 190 189 200 194 160 157 169 181 192 200
302 301 298 294 312 324 328 325 315 287 274 267 263 245 239 241 234 233 229 230 230 226 223 212 213 217 216 213 209 200 192 199 198 196 189 193 190 174 168 175 184 188 186
298 293 300 310 311 314 319 320 319 306 292 282 269 264 250 244 237 222 227 227 227 224 218 214 211 201 214 211 211 207 200 201 205 194 190 190 194 187 178 182 185 185 185
286 307 316 318 318 319 321 322 319 315 307 291 276 265 250 244 237 224 224 223 223 217 215 220 221 216 210 196 204 208 212 207 206 198 192 201 201 200 190 189 190 194 196
273 303 315 328 327 321 317 317 310 304 302 290 280 260 250 244 237 223 219 218 216 211 216 222 226 228 227 205 201 203 211 214 210 208 202 209 213 207 204 197 195 197 197
285 296 312 316 313 310 305 302 301 299 300 289 283 259 251 242 230 224 218 218 215 214 217 216 222 223 215 198 196 207 207 211 212 210 207 209 213 207 204 200 198 198 199
278 288 305 313 313 311 305 296 287 293 295 287 277 258 238 233 228 223 221 220 213 218 216 210 216 219 208 197 199 208 207 212 213 210 210 208 206 203 201 200 200 200 201
291 297 305 317 323 325 316 291 282 289 284 278 272 216 212 229 230 227 227 225 221 221 212 209 217 217 205 200 204 208 214 214 211 212 212 209 211 209 205 203 202 203 202
285 292 303 316 322 333 319 288 285 280 259 248 212 194 191 206 223 231 231 228 219 216 215 213 214 207 201 205 210 214 215 214 217 218 218 214 213 212 211 209 205 206 207
297 289 299 310 314 326 323 287 269 275 263 238 182 198 191 211 212 222 226 225 221 218 214 213 213 207 208 213 217 228 208 215 222 223 223 222 221 219 216 214 211 214 212
298 289 291 303 312 325 323 287 254 274 256 227 194 213 209 206 211 217 216 213 211 211 213 216 216 216 218 219 225 217 212 208 225 217 222 222 222 222 220 215 218 219 219
294 282 282 299 303 314 335 317 313 356 333 216 193 204 211 206 214 214 213 216 212 211 214 218 220 220 218 223 222 218 213 211 215 215 219 220 221 220 221 220 220 224 225
284 279 282 292 301 280 314 358 14 342 339 289 218 206 199 205 215 213 207 208 217 220 219 225 227 224 224 230 227 219 216 213 219 221 223 220 218 218 219 221 225 227 228
269 264 271 283 301 292 273 263 270 326 332 306 238 224 220 216 222 223 214 209 211 211 222 228 230 228 232 237 227 223 225 221 225 225 223 223 222 223 226 230 233 234 235